ATLAS 5 CENTAUR DEB, 43990

Orbit data source: Space-Track

ATLAS 5 CENTAUR DEB, 43990 is space debris in HEO originally from a launch on Wed, 17 Sep 2014 UTC launched from the Air Force Eastern Test Range (AFETR). Debris objects in space refer to the collection of defunct objects orbiting the Earth. Examples of debris include non-operational satellites, rocket bodies, and fragments generated from explosions, collisions, or faulty payload assembly.

Loading next visibility...
Identifier
43990, 2014-055AV
Orbit
HEO
Country
Flag of USUS
Related business
Flag of USUnited Launch Alliance/Lockheed Martin (US)
Manufacturer
Unknown
Mission
Spacecraft
Bus & Motor
Unknown
Mass
Unknown
Launch date (UTC)
2014-09-17 (11 years ago)
Launch vehicle
Unknown
Launch site
Air Force Eastern Test Range (AFETR)
Object type
Payload
Rocket body
Debris
Shape & HBR
Unknown shape, 1.1 m
Radar Cross Section
Small (<0.1 m²)

Expand to show TLE details & history
Last TLE update: 1 month ago

TLE from 1 month ago
0 ATLAS 5 CENTAUR DEB
1 43990U 14055AV  25252.00540547 -.00000009  00000-0  00000-0 0  9991
2 43990  19.8991 162.0509 4818058 133.5879 278.0486  1.88648312 47813
Epoch: 2025-09-09T00:07Z
TLE epoch observation values (Epoch: 2025-09-09T00:07:47.032Z)
Latitude
0.00003°
Longitude
171.7635°
Altitude
25,474.942 km
Speed
3.259 km/s
True Right ascension
10h 48m 02s
True Declination
0° 00' 00"
Sunlit
Object was in daylight at epoch
Visualization orbit readout
Latitude
Unknown
Longitude
Unknown
Altitude
Unknown
Speed
Unknown
Apparent Right ascension
Unknown
Apparent Declination
Unknown
Sunlit
N/A
Visualization observer readout
Local Sidereal Time
02:09:21
Azimuth
Unknown
Elevation
Unknown
Doppler factor
Unknown
Orbital elements
Apogee altitude
34,622.33 km
Perigee altitude
7,959.912 km
Semi-major axis
27,669.258 km
Eccentricity
0.48181
Inclination
19.8991°
RAAN
162.0509°
Arg. of periapsis
133.5879°
True anomaly
226.36484°
Mean anomaly
278.0486°
Eccentric anomaly
251.82104°
Mean motion
0.47157 °/min
Orbital period
763.41 mins
BSTAR
0
Loading maneuver chart data...
Computing Atmospheric mass density...

Documentation

Showing up to 5 results
|